Radiation Dose at Monitoring Post of Fukushima Daini Nuclear Power Station
Date,Time,MP-1(microSv/h),MP-2(microSv/h),MP-3(microSv/h),MP-4(microSv/h),MP-5(microSv/h),MP-6(microSv/h),MP-7(microSv/h),Wind Direction,Wind Velocity(m/s),Rain
2018/11/04,00:00,0.316,0.193,0.313,0.302,0.284,0.157,0.097,west-southwest,4.3,No
2018/11/04,00:10,0.314,0.193,0.313,0.300,0.283,0.158,0.097,west-southwest,3.7,No
2018/11/04,00:20,0.315,0.193,0.314,0.301,0.282,0.158,0.096,west,2.3,No
2018/11/04,00:30,0.316,0.192,0.315,0.300,0.282,0.158,0.097,west-northwest,1.6,No
2018/11/04,00:40,0.315,0.194,0.312,0.299,0.283,0.158,0.097,west-northwest,1.5,No
2018/11/04,00:50,0.315,0.193,0.314,0.302,0.285,0.158,0.097,northwest,0.7,No
2018/11/04,01:00,0.315,0.194,0.315,0.301,0.283,0.157,0.096,-,CALM,No
2018/11/04,01:10,0.315,0.194,0.313,0.300,0.284,0.158,0.097,-,CALM,No
2018/11/04,01:20,0.314,0.193,0.315,0.302,0.284,0.156,0.097,south-southwest,0.6,No
2018/11/04,01:30,0.315,0.193,0.314,0.302,0.284,0.158,0.097,west-southwest,1.0,No
2018/11/04,01:40,0.314,0.194,0.315,0.300,0.282,0.158,0.096,west-northwest,1.0,No
2018/11/04,01:50,0.314,0.194,0.314,0.302,0.283,0.157,0.098,west,1.6,No
2018/11/04,02:00,0.316,0.193,0.314,0.301,0.283,0.157,0.097,west-northwest,0.8,No
2018/11/04,02:10,0.315,0.195,0.313,0.301,0.283,0.157,0.097,-,CALM,No
2018/11/04,02:20,0.316,0.193,0.314,0.302,0.284,0.158,0.097,-,CALM,No
2018/11/04,02:30,0.315,0.193,0.315,0.303,0.283,0.157,0.097,-,CALM,No
2018/11/04,02:40,0.315,0.193,0.315,0.301,0.285,0.158,0.097,northeast,0.7,No
2018/11/04,02:50,0.316,0.193,0.312,0.300,0.284,0.157,0.097,-,CALM,No
2018/11/04,03:00,0.316,0.194,0.316,0.302,0.283,0.158,0.097,northeast,0.9,No
2018/11/04,03:10,0.314,0.195,0.314,0.301,0.284,0.159,0.097,-,CALM,No
2018/11/04,03:20,0.314,0.194,0.313,0.301,0.284,0.158,0.097,south-southwest,1.3,No
2018/11/04,03:30,0.316,0.193,0.316,0.302,0.284,0.157,0.097,south-southwest,2.0,No
2018/11/04,03:40,0.316,0.193,0.313,0.302,0.285,0.158,0.097,south-southwest,1.3,No
2018/11/04,03:50,0.315,0.194,0.313,0.302,0.285,0.158,0.097,southwest,1.4,No
2018/11/04,04:00,0.316,0.193,0.316,0.302,0.283,0.158,0.097,south-southwest,2.2,No
2018/11/04,04:10,0.315,0.193,0.315,0.300,0.283,0.158,0.097,west-southwest,4.4,No
2018/11/04,04:20,0.315,0.194,0.315,0.302,0.282,0.157,0.097,west-southwest,5.1,No
2018/11/04,04:30,0.315,0.192,0.315,0.302,0.284,0.157,0.096,west-southwest,5.5,No
2018/11/04,04:40,0.316,0.193,0.314,0.302,0.284,0.157,0.097,southwest,5.7,No
2018/11/04,04:50,0.314,0.193,0.313,0.301,0.284,0.158,0.097,southwest,5.5,No
2018/11/04,05:00,0.314,0.192,0.316,0.304,0.283,0.158,0.097,southwest,4.1,No
2018/11/04,05:10,0.314,0.193,0.315,0.301,0.285,0.157,0.096,southwest,3.7,No
2018/11/04,05:20,0.314,0.193,0.314,0.300,0.284,0.158,0.096,west-southwest,1.5,No
2018/11/04,05:30,0.315,0.194,0.314,0.301,0.283,0.158,0.096,southwest,1.4,No
2018/11/04,05:40,0.314,0.193,0.313,0.301,0.285,0.157,0.096,south-southwest,1.6,No
2018/11/04,05:50,0.315,0.194,0.312,0.299,0.283,0.157,0.097,south-southwest,1.4,No
2018/11/04,06:00,0.314,0.194,0.315,0.302,0.283,0.158,0.096,-,CALM,No
2018/11/04,06:10,0.315,0.193,0.313,0.300,0.282,0.158,0.097,southwest,1.8,No
2018/11/04,06:20,0.315,0.192,0.313,0.299,0.282,0.157,0.096,southwest,1.1,No
2018/11/04,06:30,0.315,0.193,0.316,0.300,0.283,0.157,0.096,south-southwest,0.9,No
2018/11/04,06:40,0.315,0.192,0.314,0.301,0.283,0.157,0.098,south-southwest,2.8,No
2018/11/04,06:50,0.314,0.194,0.314,0.301,0.282,0.158,0.096,southwest,4.1,No
2018/11/04,07:00,0.314,0.193,0.315,0.301,0.284,0.158,0.096,southwest,5.0,No
2018/11/04,07:10,0.315,0.193,0.313,0.301,0.282,0.157,0.096,southwest,4.9,No
2018/11/04,07:20,0.314,0.194,0.314,0.300,0.283,0.157,0.095,west-southwest,4.1,No
2018/11/04,07:30,0.315,0.194,0.315,0.301,0.284,0.157,0.096,west,2.7,No
2018/11/04,07:40,0.315,0.192,0.313,0.300,0.283,0.157,0.096,west-southwest,2.2,No
2018/11/04,07:50,0.314,0.193,0.313,0.300,0.285,0.157,0.096,west-southwest,0.9,No
2018/11/04,08:00,0.316,0.193,0.314,0.300,0.281,0.157,0.097,west-southwest,0.9,No
2018/11/04,08:10,0.315,0.191,0.313,0.299,0.283,0.157,0.096,-,CALM,No
2018/11/04,08:20,0.314,0.192,0.314,0.301,0.283,0.156,0.096,-,CALM,No
2018/11/04,08:30,0.315,0.194,0.314,0.298,0.283,0.156,0.096,north-northeast,0.7,No
2018/11/04,08:40,0.313,0.192,0.313,0.300,0.284,0.157,0.095,-,CALM,No
2018/11/04,08:50,0.314,0.194,0.315,0.300,0.281,0.158,0.096,-,CALM,No
2018/11/04,09:00,0.313,0.191,0.314,0.297,0.283,0.156,0.097,north,1.5,No
2018/11/04,09:10,0.312,0.193,0.312,0.301,0.282,0.157,0.096,north-northeast,1.2,No
2018/11/04,09:20,0.315,0.192,0.313,0.298,0.282,0.157,0.096,northeast,1.0,No
2018/11/04,09:30,0.314,0.193,0.313,0.298,0.283,0.156,0.097,east-northeast,1.3,No
2018/11/04,09:40,0.311,0.192,0.314,0.301,0.279,0.157,0.096,east-northeast,0.9,No
2018/11/04,09:50,0.315,0.193,0.312,0.299,0.284,0.156,0.096,northeast,1.8,No
2018/11/04,10:00,0.311,0.192,0.313,0.297,0.283,0.156,0.096,northeast,2.8,No
2018/11/04,10:10,0.313,0.193,0.311,0.303,0.278,0.155,0.096,northeast,3.0,No
2018/11/04,10:20,0.315,0.193,0.314,0.301,0.283,0.157,0.096,northeast,4.2,No
2018/11/04,10:30,0.312,0.194,0.314,0.298,0.284,0.157,0.097,northeast,3.3,No
2018/11/04,10:40,0.313,0.192,0.313,0.297,0.281,0.157,0.096,northeast,2.5,No
2018/11/04,10:50,0.315,0.193,0.314,0.301,0.280,0.158,0.096,northeast,1.9,No
2018/11/04,11:00,0.311,0.192,0.313,0.302,0.285,0.157,0.097,northeast,2.3,No
2018/11/04,11:10,0.316,0.193,0.313,0.300,0.282,0.158,0.095,east-northeast,2.1,No
2018/11/04,11:20,0.315,0.193,0.315,0.297,0.281,0.158,0.096,northeast,1.9,No
2018/11/04,11:30,0.312,0.192,0.313,0.301,0.281,0.157,0.097,northeast,2.3,No
2018/11/04,11:40,0.312,0.191,0.313,0.302,0.285,0.158,0.097,east-northeast,1.6,No
2018/11/04,11:50,0.315,0.194,0.314,0.301,0.282,0.157,0.095,east-northeast,1.7,No
2018/11/04,12:00,0.314,0.192,0.314,0.298,0.281,0.157,0.096,east,0.9,No
2018/11/04,12:10,0.313,0.193,0.312,0.302,0.283,0.158,0.096,southeast,1.7,No
2018/11/04,12:20,0.317,0.193,0.316,0.302,0.285,0.156,0.096,east-southeast,1.5,No
2018/11/04,12:30,0.313,0.191,0.311,0.299,0.285,0.157,0.095,east,2.0,No
2018/11/04,12:40,0.311,0.192,0.312,0.298,0.280,0.158,0.096,east-southeast,1.2,No
2018/11/04,12:50,0.316,0.194,0.315,0.301,0.279,0.157,0.097,east,1.4,No
2018/11/04,13:00,0.314,0.193,0.311,0.301,0.283,0.157,0.096,east-southeast,1.5,No
2018/11/04,13:10,0.310,0.193,0.314,0.301,0.283,0.157,0.095,southeast,1.2,No
2018/11/04,13:20,0.315,0.194,0.314,0.298,0.281,0.157,0.096,south-southeast,0.7,No
2018/11/04,13:30,0.313,0.193,0.310,0.299,0.281,0.158,0.096,east-southeast,0.9,No
2018/11/04,13:40,0.315,0.192,0.311,0.302,0.284,0.157,0.096,east,0.9,No
2018/11/04,13:50,0.315,0.193,0.314,0.301,0.283,0.157,0.096,southeast,1.4,No
2018/11/04,14:00,0.313,0.193,0.312,0.299,0.281,0.157,0.097,east-southeast,1.5,No
2018/11/04,14:10,0.315,0.192,0.316,0.303,0.285,0.157,0.097,southeast,1.6,No
2018/11/04,14:20,0.313,0.193,0.313,0.300,0.285,0.157,0.096,southeast,1.9,No
2018/11/04,14:30,0.317,0.194,0.316,0.301,0.283,0.157,0.096,southeast,1.8,No
2018/11/04,14:40,0.313,0.192,0.313,0.302,0.286,0.157,0.096,east-southeast,1.5,No
2018/11/04,14:50,0.316,0.193,0.314,0.300,0.282,0.157,0.096,south,2.7,No
2018/11/04,15:00,0.315,0.193,0.314,0.302,0.284,0.157,0.097,south,3.6,No
2018/11/04,15:10,0.314,0.193,0.314,0.300,0.284,0.156,0.095,south-southeast,1.8,No
2018/11/04,15:20,0.315,0.194,0.314,0.303,0.284,0.156,0.097,south-southeast,1.2,No
2018/11/04,15:30,0.313,0.194,0.312,0.302,0.285,0.157,0.096,south,0.8,No
2018/11/04,15:40,0.315,0.194,0.316,0.302,0.283,0.156,0.097,-,CALM,No
2018/11/04,15:50,0.315,0.193,0.313,0.301,0.284,0.157,0.096,south,2.3,No
2018/11/04,16:00,0.316,0.195,0.315,0.303,0.283,0.158,0.096,south,3.0,No
2018/11/04,16:10,0.314,0.194,0.313,0.301,0.285,0.157,0.096,south,2.1,No
2018/11/04,16:20,0.315,0.193,0.314,0.301,0.282,0.158,0.097,south,3.0,No
2018/11/04,16:30,0.313,0.192,0.313,0.302,0.284,0.157,0.095,south-southwest,2.5,No
2018/11/04,16:40,0.315,0.194,0.314,0.301,0.283,0.157,0.096,southwest,1.4,No
2018/11/04,16:50,0.314,0.194,0.313,0.302,0.284,0.156,0.097,southwest,1.7,No
2018/11/04,17:00,0.316,0.191,0.313,0.301,0.281,0.158,0.096,south-southwest,5.0,No
2018/11/04,17:10,0.314,0.194,0.312,0.301,0.285,0.157,0.096,south-southwest,5.5,No
2018/11/04,17:20,0.315,0.193,0.315,0.300,0.282,0.157,0.096,south-southwest,4.4,No
2018/11/04,17:30,0.315,0.194,0.312,0.301,0.284,0.157,0.096,west-southwest,1.8,No
2018/11/04,17:40,0.316,0.192,0.314,0.301,0.283,0.158,0.096,west-southwest,1.5,No
2018/11/04,17:50,0.314,0.193,0.315,0.302,0.285,0.157,0.096,west-southwest,1.3,No
2018/11/04,18:00,0.316,0.194,0.313,0.301,0.283,0.158,0.096,-,CALM,No
2018/11/04,18:10,0.315,0.193,0.314,0.301,0.285,0.158,0.096,west-southwest,1.9,No
2018/11/04,18:20,0.315,0.194,0.314,0.299,0.282,0.158,0.097,south-southwest,3.0,No
2018/11/04,18:30,0.313,0.194,0.315,0.301,0.284,0.156,0.096,southwest,4.8,No
2018/11/04,18:40,0.315,0.194,0.314,0.301,0.283,0.157,0.096,southwest,3.4,No
2018/11/04,18:50,0.313,0.193,0.315,0.302,0.282,0.156,0.097,south-southwest,3.3,No
2018/11/04,19:00,0.315,0.194,0.313,0.299,0.283,0.158,0.096,southwest,2.0,No
2018/11/04,19:10,0.314,0.193,0.315,0.300,0.284,0.157,0.096,southwest,2.5,No
2018/11/04,19:20,0.317,0.194,0.313,0.301,0.283,0.158,0.097,south-southwest,4.2,No
2018/11/04,19:30,0.314,0.193,0.313,0.301,0.283,0.157,0.096,south-southwest,2.9,No
2018/11/04,19:40,0.315,0.194,0.314,0.302,0.284,0.158,0.097,south-southwest,2.8,No
2018/11/04,19:50,0.315,0.195,0.314,0.300,0.283,0.158,0.096,south-southwest,2.5,No
2018/11/04,20:00,0.315,0.195,0.314,0.303,0.283,0.159,0.097,south-southwest,2.1,No
2018/11/04,20:10,0.314,0.194,0.314,0.300,0.284,0.157,0.097,south-southwest,1.8,No
2018/11/04,20:20,0.315,0.193,0.314,0.302,0.284,0.158,0.096,south-southwest,2.1,No
2018/11/04,20:30,0.316,0.193,0.314,0.300,0.283,0.158,0.097,south-southwest,2.6,No
2018/11/04,20:40,0.314,0.192,0.314,0.303,0.284,0.158,0.097,south-southwest,3.7,No
2018/11/04,20:50,0.316,0.195,0.312,0.300,0.285,0.158,0.097,south,3.2,No
2018/11/04,21:00,0.314,0.194,0.316,0.302,0.283,0.158,0.097,south,4.6,No
2018/11/04,21:10,0.317,0.194,0.314,0.302,0.284,0.158,0.097,south,5.0,No
2018/11/04,21:20,0.314,0.194,0.315,0.302,0.283,0.157,0.096,south-southwest,3.9,No
2018/11/04,21:30,0.317,0.193,0.314,0.303,0.284,0.158,0.096,south-southwest,3.2,No
2018/11/04,21:40,0.314,0.194,0.315,0.302,0.283,0.158,0.096,south-southwest,2.9,No
2018/11/04,21:50,0.315,0.194,0.313,0.303,0.283,0.157,0.097,south-southwest,2.2,No
2018/11/04,22:00,0.314,0.194,0.313,0.300,0.283,0.158,0.096,south-southwest,1.4,No
2018/11/04,22:10,0.316,0.194,0.313,0.302,0.283,0.158,0.097,south,1.8,No
2018/11/04,22:20,0.315,0.193,0.314,0.300,0.283,0.158,0.097,southwest,0.7,No
2018/11/04,22:30,0.315,0.194,0.314,0.301,0.285,0.158,0.096,south,1.7,No
2018/11/04,22:40,0.315,0.193,0.314,0.303,0.282,0.159,0.096,south-southwest,1.7,No
2018/11/04,22:50,0.316,0.195,0.315,0.300,0.285,0.157,0.096,south,2.5,No
2018/11/04,23:00,0.315,0.192,0.313,0.303,0.282,0.158,0.096,south,4.7,No
2018/11/04,23:10,0.315,0.193,0.315,0.301,0.286,0.157,0.096,south-southwest,4.6,No
2018/11/04,23:20,0.316,0.194,0.314,0.303,0.282,0.158,0.096,southwest,2.8,Yes
2018/11/04,23:30,0.315,0.194,0.315,0.301,0.285,0.158,0.096,south-southwest,4.1,Yes
2018/11/04,23:40,0.317,0.194,0.316,0.302,0.281,0.158,0.096,south-southwest,4.3,Yes
2018/11/04,23:50,0.315,0.193,0.315,0.302,0.284,0.157,0.096,south-southwest,4.0,No
